STARLINK-3128 (49441 NORAD) Tracking and Keplerian Element Data

This shows tracking and keplerian element data for the satellite.

Feedback or suggestion? Click here.




ElementValue
Catalog49441
NameSTARLINK-3128
Epoch Orbit370
Epoch Day15.91668981
Epoch Year2022
RAAN179.3442
Inclination53.2156
Eccentricity0.0003012
Argument of Perigee12.4453
Mean Anonmoly202.2349
Mean Motion15.73224071
Decay Rate-0.00065953
L11 49441U 21104AK 22015.91668981 -.00065953 00000+0 -46855-3 0 9998
L22 49441 53.2156 179.3442 0003012 12.4453 202.2349 15.73224071 3705

Live tracking and technical data element details for STARLINK-3128 (NORAD 49441). STARLINK-3128 can be tracked NOW for your location showing map with azimuth and elevation plus other details from your city location.

Track the satellite on the map from your city or location and see movement details for azimuth, elevation, latitude, longitude, range, height, and movement on the map or in text.







IsCatalogInMostPopularTable: catalog: 49441, numindb: 3
Update: records affected: 1



GetName: 49441 STARLINK-3128

Hit Count: updated at: Thu, 20 Jan 2022 16:10:30 GMT